TITAN 3C TRANSTAGE DEB, 1883

Orbit data source: Space-Track

TITAN 3C TRANSTAGE DEB, 1883 is space debris in LEO originally from a launch on Fri, 15 Oct 1965 UTC launched from the Air Force Eastern Test Range (AFETR). Debris objects in space refer to the collection of defunct objects orbiting the Earth. Examples of debris include non-operational satellites, rocket bodies, and fragments generated from explosions, collisions, or faulty payload assembly.

Loading next visibility...
Identifier
1883, 1965-082EY
Orbit
LEO
Country
Flag of USUS
Related business
Manufacturer
Unknown
Mission
Spacecraft
Bus & Motor
Unknown
Mass
Unknown
Launch date (UTC)
1965-10-15 (60 years ago)
Launch vehicle
Unknown
Launch site
Air Force Eastern Test Range (AFETR)
Object type
Payload
Rocket body
Debris
Shape & HBR
Unknown shape, 0.1 m
Radar Cross Section
Small (<0.1 m²)

Expand to show TLE details & history
Last TLE update: 20 hours ago

TLE from 20 hours ago
0 TITAN 3C TRANSTAGE DEB
1 01883U 65082EY  26033.57102111  .00008588  00000-0  36410-3 0  9999
2 01883  32.0900 191.3123 0013535 184.2473 175.8075 15.21848134244765
Epoch: 2026-02-02T13:42Z
TLE epoch observation values (Epoch: 2026-02-02T13:42:16.223Z)
Latitude
-0.00003°
Longitude
-147.01975°
Altitude
508.158 km
Speed
7.607 km/s
True Right ascension
12h 45m 14s
True Declination
0° 00' 00"
Sunlit
Object was in full shadow at epoch
Visualization orbit readout
Latitude
Unknown
Longitude
Unknown
Altitude
Unknown
Speed
Unknown
Apparent Right ascension
Unknown
Apparent Declination
Unknown
Sunlit
N/A
Visualization observer readout
Local Sidereal Time
11:16:18
Azimuth
Unknown
Elevation
Unknown
Doppler factor
Unknown
Orbital elements
Apogee altitude
513.279 km
Perigee altitude
494.649 km
Semi-major axis
6,882.101 km
Eccentricity
0.00135
Inclination
32.09°
RAAN
191.3123°
Arg. of periapsis
184.2473°
True anomaly
175.81882°
Mean anomaly
175.8075°
Eccentric anomaly
175.81316°
Mean motion
3.80156 °/min
Orbital period
94.7 mins
BSTAR
0.0003641

Documentation

Showing up to 5 results
|